Tracking 30995 objects as of 7-Jul-2025
HD Live streaming from Space Station
objects crossing your sky now

SL-8 DEB

Track SL-8 DEB now!
10-day predictions


NORAD ID: 6065
Int'l Code: 1972-043D
Perigee: 581.6 km
Apogee: 598.0 km
Inclination: 74.1 °
Period: 96.3 minutes
Semi major axis: 6960 km
RCS: 0.0066 m2 (small)
Launch date: June 23, 1972
Source: Commonwealth of Independent States (former USSR) (CIS)
Launch site: PLESETSK MISSILE AND SPACE COMPLEX (PKMTR)

Note: This is SATELLITE DEBRIS
Your satellite tracking list
Your tracking list is empty




NASA's NSSDC Master Catalog

Two Line Element Set (TLE):
1 06065U 72043D   25187.38522113  .00006365  00000-0  58576-3 0  9995
2 06065  74.0595 169.0221 0011803 307.3186  52.6921 14.94896888806049
Source of the keplerian elements: AFSPC